[[{"header":{"parameterUnit":"m.s-1","parameterCategory":1,"la1":30.2991,"la2":30.254,"lo1":-89.0895,"lo2":-89.0444,"dy":0.0017,"dx":0.0017,"nx":28,"ny":28,"refTime":"2025-07-05T09:00:00:Z","depth":0,"parameterNumber":2,"parameterNumberName":"U-component_of_WINDS"},"data":[0,0,0,0,0,0,0,0,0,0,0,0,0,0,0,0,0,0,0,0,0,0,0,0,0,0,0,0,0,0,0,0,0,0,0,0,0,0,0,0,0,0,0,0,0,0,0,0,0,0,0,0,0,0,0,0,0,0,1.6165,1.6167,0,1.6291,1.6292,1.6294,1.6312,1.6311,1.631,1.6309,1.6437,1.6442,1.6446,0,0,0,0,0,0,0,0,0,0,0,0,0,1.5941,1.5945,1.6165,1.6167,1.6168,1.6291,1.6292,1.6294,1.6312,1.6311,1.6309,1.6308,1.6436,1.6441,1.6447,0,0,0,0,0,0,0,0,0,0,0,0,0,1.6049,1.5946,1.6165,1.6192,1.6196,1.629,1.6293,1.6295,1.6312,1.6311,1.6309,1.6307,1.6434,1.6441,1.6447,1.6524,0,0,1.6468,1.6471,0,0,0,0,0,0,0,0,1.6043,1.6058,1.6187,1.619,1.6195,1.6284,1.6261,1.6371,1.6313,1.6268,1.6309,1.6307,1.6388,1.6398,1.6426,1.653,1.6535,1.6468,1.6473,1.6475,1.6477,0,0,0,0,0,0,0,1.6036,1.6052,1.6215,1.6188,1.6193,1.6198,1.6212,1.6282,1.6336,1.6272,1.6274,1.6288,1.639,1.6419,1.6429,1.6537,1.6468,1.6474,1.6478,1.6481,1.671,1.6712,0,0,0,0,0,0,1.6023,1.6046,1.6211,1.6219,1.6113,1.6203,1.6219,1.6257,1.6335,1.6346,1.629,1.6289,1.6408,1.6421,1.6433,1.6528,1.6475,1.6482,1.6486,1.6708,1.6711,1.6713,0,0,0,0,0,0,1.6018,1.6038,1.6206,1.6133,1.6155,1.6209,1.6252,1.626,1.629,1.6349,1.6358,1.631,1.6407,1.6424,1.6501,1.6532,1.6485,1.6491,1.6706,1.6709,1.6712,1.6717,0,0,0,0,0,0,1.6012,1.6036,1.6065,1.6133,1.6158,1.6272,1.6254,1.6264,1.6301,1.6301,1.637,1.638,1.6407,1.6491,1.6508,1.6541,1.6496,1.6703,1.6707,1.6711,1.6714,1.672,1.6725,0,0,0,0,0,1.6004,1.6062,1.6067,1.6087,1.6197,1.6273,1.6288,1.6318,1.6304,1.6334,1.6372,1.6378,1.6526,1.6499,1.6518,1.6553,1.6701,1.6706,1.671,1.6712,1.6719,1.6725,0,0,0,0,0,0,1.5996,1.6071,1.6078,1.616,1.621,1.6276,1.6315,1.6324,1.638,1.6377,1.6413,1.6428,1.6504,1.6536,1.6504,1.6631,1.6613,1.6621,1.6607,1.6614,1.6619,1.661,1.6502,0,0,0,0,0,1.6004,1.606,1.6123,1.6189,1.6214,1.626,1.6295,1.6314,1.6368,1.6389,1.6432,1.6484,1.6543,1.658,1.6637,1.6719,1.6734,1.6753,1.6758,1.6762,1.6769,1.6815,1.6824,1.6728,1.6728,1.6728,0,0,1.6021,1.6069,1.6102,1.6189,1.623,1.6287,1.6278,1.6339,1.6382,1.6398,1.6474,1.6507,1.6568,1.6647,1.6685,1.6677,1.6799,1.6768,1.6771,1.6776,1.6821,1.683,1.6838,1.6731,1.673,1.673,0,0,1.6081,1.6123,1.6183,1.6225,1.6287,1.6317,1.6332,1.6397,1.642,1.6496,1.651,1.6561,1.6661,1.6703,1.6738,1.6814,1.6821,1.6831,1.6858,1.6902,1.691,1.6917,1.6944,1.6953,1.6838,1.6838,1.6838,0,1.6094,1.6181,1.6213,1.6273,1.6311,1.6328,1.6389,1.6428,1.6506,1.6531,1.6521,1.6647,1.6689,1.6779,1.6797,1.6825,1.6842,1.6823,1.6906,1.6914,1.692,1.6946,1.6956,1.6839,1.6839,1.6839,1.6839,0,1.6194,1.6254,1.6295,1.6369,1.6412,1.6472,1.6512,1.6552,1.6567,1.6598,1.6676,1.6727,1.6794,1.6817,1.6833,1.6909,1.6902,1.6899,1.6881,1.693,1.6955,1.6965,1.684,1.684,1.684,1.6839,0,0,1.6253,1.6344,1.6359,1.6393,1.6463,1.651,1.6571,1.6637,1.6669,1.6723,1.6775,1.6859,1.6856,1.6895,1.6916,1.6955,1.7011,1.6947,1.6949,1.6957,1.7099,1.71,1.7111,1.7017,1.7019,1.7021,1.7093,0,1.6321,1.643,1.646,1.6553,1.6608,1.6626,1.6679,1.6728,1.6759,1.681,1.6845,1.6903,1.6896,1.6919,1.6959,1.6996,1.704,1.6991,1.7065,1.7068,1.7049,1.7124,1.7127,1.7193,1.7103,1.7105,1.7106,0,1.6415,1.647,1.6567,1.663,1.6655,1.6702,1.6765,1.6814,1.687,1.689,1.6933,1.6951,1.7015,1.6993,1.7082,1.7048,1.7081,1.7104,1.7107,1.7115,1.709,1.7134,1.7215,1.7225,1.7122,1.7121,1.712,0,1.6447,1.6546,1.6617,1.6646,1.6721,1.6754,1.6786,1.6841,1.6878,1.6933,1.6958,1.702,1.7053,1.7101,1.7134,1.7116,1.722,1.7202,1.7239,1.7238,1.726,1.7258,1.7346,1.7281,1.7281,1.728,1.728,0,1.652,1.6579,1.6633,1.6676,1.6743,1.6777,1.6842,1.6876,1.6924,1.6974,1.6993,1.704,1.7082,1.7135,1.7161,1.7231,1.7246,1.7264,1.727,1.7262,1.726,1.7283,1.7279,1.7283,1.7283,1.7282,1.7282,0,1.6568,1.6606,1.6685,1.6749,1.6767,1.6813,1.6869,1.6912,1.6943,1.7007,1.7024,1.7074,1.7137,1.7175,1.7255,1.7273,1.7349,1.7354,1.733,1.7333,1.7367,1.7363,1.7474,1.749,1.7414,1.7415,1.7415,0,1.6611,1.6657,1.6727,1.6762,1.6795,1.6852,1.689,1.6925,1.6964,1.7031,1.7066,1.7131,1.7184,1.7284,1.7327,1.7388,1.7394,1.7429,1.7403,1.7394,1.7394,1.7391,1.7395,1.7433,1.7433,1.7434,1.7434,0,1.6685,1.6701,1.6756,1.6817,1.6863,1.6913,1.6962,1.699,1.7034,1.7077,1.7142,1.7183,1.7264,1.7328,1.7392,1.7426,1.7438,1.7442,1.7454,1.7446,1.743,1.7438,1.7341,1.7439,1.7439,1.7438,1.7438,1.7438,1.6732,1.6773,1.6828,1.6889,1.693,1.6976,1.7019,1.7056,1.7111,1.7179,1.7197,1.7265,1.7319,1.7407,1.7443,1.7496,1.7491,1.7508,1.7512,1.7516,1.7516,1.7421,1.7508,1.7508,1.7508,1.7508,1.7508,0,1.6806,1.6842,1.6897,1.6966,1.7013,1.702,1.7075,1.7114,1.7173,1.7223,1.7275,1.7349,1.7411,1.7459,1.7522,1.7555,1.7562,1.7571,1.7568,1.7576,1.7518,1.7501,1.7564,1.7564,1.7564,1.7564,1.7564,1.7564,1.685,1.692,1.6943,1.7034,1.707,1.7136,1.7167,1.721,1.725,1.7331,1.7383,1.7413,1.7463,1.7529,1.7586,1.7599,1.7621,1.7629,1.7642,1.7586,1.758,1.7574,1.7559,1.7633,1.7633,1.7696,1.7697,1.7697]},{"header":{"parameterUnit":"m.s-1","parameterCategory":1,"la1":30.2991,"la2":30.254,"lo1":-89.0895,"lo2":-89.0444,"dy":0.0017,"dx":0.0017,"nx":28,"ny":28,"refTime":"2025-07-05T09:00:00:Z","depth":0,"parameterNumber":3,"parameterNumberName":"V-component_of_WINDS"},"data":[0,0,0,0,0,0,0,0,0,0,0,0,0,0,0,0,0,0,0,0,0,0,0,0,0,0,0,0,0,0,0,0,0,0,0,0,0,0,0,0,0,0,0,0,0,0,0,0,0,0,0,0,0,0,0,0,0,0,-1.098,-1.0981,0,-1.1019,-1.102,-1.102,-1.1031,-1.1031,-1.1031,-1.1031,-1.1067,-1.1068,-1.1069,0,0,0,0,0,0,0,0,0,0,0,0,0,-1.0913,-1.0914,-1.098,-1.0981,-1.0981,-1.1019,-1.102,-1.102,-1.1031,-1.1031,-1.1031,-1.1031,-1.1067,-1.1068,-1.1069,0,0,0,0,0,0,0,0,0,0,0,0,0,-1.0946,-1.0914,-1.098,-1.0992,-1.0993,-1.1019,-1.102,-1.102,-1.1031,-1.1031,-1.1031,-1.1031,-1.1066,-1.1068,-1.1069,-1.1086,0,0,-1.1075,-1.1075,0,0,0,0,0,0,0,0,-1.0944,-1.0948,-1.0989,-1.0991,-1.0993,-1.102,-1.1009,-1.1042,-1.1031,-1.1017,-1.1031,-1.103,-1.1051,-1.1054,-1.1062,-1.1088,-1.1089,-1.1075,-1.1076,-1.1077,-1.1077,0,0,0,0,0,0,0,-1.0942,-1.0947,-1.0996,-1.099,-1.0992,-1.0994,-1.0998,-1.1015,-1.1035,-1.1018,-1.1019,-1.1024,-1.1052,-1.106,-1.1063,-1.109,-1.1075,-1.1076,-1.1077,-1.1078,-1.113,-1.1131,0,0,0,0,0,0,-1.0938,-1.0945,-1.0994,-1.0997,-1.0967,-1.0995,-1.1,-1.1012,-1.1035,-1.1038,-1.1024,-1.1024,-1.1058,-1.1061,-1.1064,-1.1085,-1.1077,-1.1078,-1.1079,-1.113,-1.113,-1.1131,0,0,0,0,0,0,-1.0936,-1.0942,-1.0993,-1.0971,-1.0978,-1.0997,-1.1009,-1.1012,-1.1021,-1.1039,-1.1043,-1.1029,-1.1058,-1.1062,-1.1081,-1.1086,-1.1079,-1.1081,-1.113,-1.113,-1.1131,-1.1127,0,0,0,0,0,0,-1.0934,-1.0942,-1.0949,-1.0971,-1.0979,-1.101,-1.101,-1.1013,-1.1024,-1.1025,-1.1045,-1.1048,-1.1058,-1.1078,-1.1082,-1.1089,-1.1082,-1.1129,-1.113,-1.113,-1.1126,-1.1127,-1.1127,0,0,0,0,0,-1.0932,-1.0945,-1.0949,-1.0955,-1.0988,-1.101,-1.1014,-1.1026,-1.1025,-1.1031,-1.1043,-1.1047,-1.1085,-1.108,-1.1085,-1.1092,-1.1129,-1.113,-1.113,-1.1126,-1.1127,-1.1127,0,0,0,0,0,0,-1.0922,-1.0949,-1.0953,-1.0974,-1.099,-1.1012,-1.1021,-1.1026,-1.1042,-1.1041,-1.1054,-1.1059,-1.1076,-1.1086,-1.108,-1.1109,-1.1107,-1.1109,-1.1102,-1.1103,-1.1103,-1.11,-1.1083,0,0,0,0,0,-1.0923,-1.0939,-1.0961,-1.0978,-1.0985,-1.1002,-1.1012,-1.1019,-1.1035,-1.1042,-1.1055,-1.107,-1.1085,-1.1094,-1.1109,-1.1128,-1.1132,-1.1135,-1.1135,-1.1136,-1.1137,-1.1147,-1.1148,-1.1133,-1.1133,-1.1133,0,0,-1.0923,-1.094,-1.0949,-1.0976,-1.0989,-1.1005,-1.1007,-1.1023,-1.1035,-1.1044,-1.1063,-1.1073,-1.109,-1.1108,-1.1117,-1.1117,-1.1142,-1.1137,-1.1137,-1.1138,-1.1148,-1.1149,-1.1151,-1.1134,-1.1134,-1.1134,0,0,-1.0933,-1.0948,-1.0963,-1.0976,-1.0996,-1.1007,-1.1011,-1.1032,-1.1039,-1.1059,-1.1066,-1.1079,-1.1105,-1.1117,-1.1126,-1.114,-1.1144,-1.1144,-1.1147,-1.1157,-1.1158,-1.1159,-1.1164,-1.1165,-1.1146,-1.1146,-1.1146,0,-1.0931,-1.0956,-1.097,-1.0986,-1.0997,-1.1008,-1.1023,-1.1034,-1.1058,-1.1065,-1.1064,-1.1097,-1.1109,-1.113,-1.1134,-1.1141,-1.1145,-1.1142,-1.1157,-1.1158,-1.1159,-1.1164,-1.1166,-1.1146,-1.1146,-1.1146,-1.1146,0,-1.0953,-1.097,-1.098,-1.1003,-1.1016,-1.1031,-1.1046,-1.1057,-1.1063,-1.1074,-1.1093,-1.1108,-1.1126,-1.1132,-1.1138,-1.1154,-1.1153,-1.1155,-1.1153,-1.1161,-1.1165,-1.1167,-1.1145,-1.1146,-1.1146,-1.1146,0,0,-1.0957,-1.0988,-1.0992,-1.1002,-1.1025,-1.1038,-1.1054,-1.1073,-1.1081,-1.1097,-1.111,-1.1131,-1.1133,-1.1144,-1.1151,-1.116,-1.1169,-1.116,-1.1161,-1.1161,-1.1187,-1.1185,-1.1187,-1.1172,-1.1173,-1.1173,-1.1185,0,-1.0969,-1.0999,-1.1012,-1.1035,-1.105,-1.106,-1.1073,-1.1088,-1.1099,-1.1112,-1.1123,-1.1138,-1.114,-1.1146,-1.1155,-1.1166,-1.1175,-1.1166,-1.1183,-1.1184,-1.1178,-1.119,-1.1188,-1.1199,-1.1187,-1.1188,-1.1188,0,-1.0987,-1.1004,-1.1029,-1.105,-1.1057,-1.1069,-1.1087,-1.1101,-1.1117,-1.1124,-1.1136,-1.1144,-1.1159,-1.1157,-1.1178,-1.1172,-1.118,-1.1186,-1.1187,-1.1189,-1.1186,-1.1191,-1.1203,-1.1204,-1.1191,-1.119,-1.119,0,-1.0987,-1.1016,-1.1035,-1.1044,-1.1069,-1.1077,-1.1088,-1.1104,-1.1115,-1.113,-1.1137,-1.1153,-1.1162,-1.1175,-1.1186,-1.1183,-1.1206,-1.1204,-1.1211,-1.1211,-1.1215,-1.1214,-1.1227,-1.1221,-1.1221,-1.1221,-1.122,0,-1.0999,-1.1014,-1.1035,-1.1047,-1.1063,-1.1078,-1.1093,-1.1104,-1.1119,-1.1132,-1.1141,-1.1153,-1.1167,-1.118,-1.1189,-1.1205,-1.1209,-1.1214,-1.1216,-1.1213,-1.1212,-1.1218,-1.1217,-1.1221,-1.1221,-1.1221,-1.1221,0,-1.1002,-1.1017,-1.1038,-1.106,-1.1066,-1.1077,-1.1096,-1.1107,-1.1118,-1.1134,-1.1138,-1.1155,-1.1171,-1.1184,-1.1204,-1.121,-1.1227,-1.1229,-1.1221,-1.1222,-1.1228,-1.1227,-1.1245,-1.1248,-1.1239,-1.1239,-1.1239,0,-1.1008,-1.102,-1.1044,-1.1054,-1.1065,-1.108,-1.1091,-1.1105,-1.1116,-1.1136,-1.1144,-1.1162,-1.1176,-1.1201,-1.1214,-1.123,-1.1232,-1.1237,-1.1235,-1.1231,-1.1232,-1.1231,-1.1232,-1.1238,-1.1238,-1.1238,-1.1238,0,-1.1018,-1.1025,-1.1041,-1.106,-1.1073,-1.1088,-1.1103,-1.111,-1.1127,-1.1139,-1.1156,-1.1167,-1.1189,-1.1205,-1.1222,-1.1232,-1.1237,-1.1239,-1.1241,-1.1238,-1.1232,-1.1235,-1.1222,-1.1238,-1.1238,-1.1238,-1.1238,-1.1238,-1.1022,-1.1033,-1.1052,-1.1069,-1.1083,-1.1097,-1.1108,-1.1121,-1.1136,-1.1155,-1.1162,-1.118,-1.1195,-1.1219,-1.1229,-1.1242,-1.1242,-1.1246,-1.1246,-1.1247,-1.1246,-1.1231,-1.1245,-1.1245,-1.1245,-1.1245,-1.1245,0,-1.1032,-1.1045,-1.1061,-1.1082,-1.1096,-1.1101,-1.1118,-1.1129,-1.1145,-1.116,-1.1174,-1.1193,-1.1209,-1.1224,-1.124,-1.1248,-1.1251,-1.1252,-1.1251,-1.1253,-1.1245,-1.1242,-1.1249,-1.1249,-1.1249,-1.1249,-1.1249,-1.1249,-1.1039,-1.1057,-1.1067,-1.1091,-1.1104,-1.1122,-1.1131,-1.1144,-1.1156,-1.1177,-1.1191,-1.1201,-1.1216,-1.1233,-1.1248,-1.1252,-1.1257,-1.1257,-1.1261,-1.1254,-1.1253,-1.1253,-1.1249,-1.1258,-1.1258,-1.1268,-1.1268,-1.1268]}]]